Date String (YYYY-MM-DD hh:mm:ss) UTC,Instrument flags,absolute air pressure of the measurement (hPa),sample flow rate (lpm),inlet stack bypass flow (lpm),air temperature of the measurement (°C),ambient temperature measured by the external sensor (°C),aerosol sample conditioner tube jacket temperature (°C),OPC LED temperature (°C),internal box temperature (°C),relative humidity of the measurement (%),span deviation,mass concentration of particles derived from Lorenz-Mie calculation of OPC scattering (μg/m³),mass concentration of particles derived from Lorenz-Mie calculation of OPC scattering (μg/m³),mass concentration of particles derived from Lorenz-Mie calculation of OPC scattering (μg/m³)
DateTimeUTC,F1_M11,P_M11,Q1_M11,Q2_M11,T1_M11,T2_M11,T3_M11,T4_M11,T5_M11,U1_M11,ZSPAN_M11,X0_M11,X2_M11,X1_M11
2024-06-08 18:00:00,SystemResetWarning,0828.6,4.98,000.00,029.6,028.5,000.0,037.7,031.1,031.9,0000.6,0023.46,0006.79,0005.17
2024-06-08 18:01:00,SystemResetWarning,0828.5,5.00,000.00,029.2,026.4,000.0,037.8,030.0,033.0,0000.4,0023.09,0006.61,0005.04
2024-06-08 18:02:00,SystemResetWarning,0828.4,5.01,000.00,028.9,025.6,000.0,037.7,029.6,033.5,0000.5,0023.18,0006.49,0004.94
2024-06-08 18:03:00,SystemResetWarning,0828.4,5.00,000.00,028.7,026.0,000.0,037.6,029.7,034.6,0000.4,0022.24,0006.42,0004.90
2024-06-08 18:04:00,SystemResetWarning,0828.4,4.99,000.00,028.7,026.4,000.0,037.5,029.9,033.5,-000.0,0022.16,0006.40,0004.89
2024-06-08 18:05:00,SystemResetWarning,0828.5,5.00,000.00,028.8,026.9,000.0,037.4,030.2,032.8,0000.0,0022.80,0006.38,0004.89
2024-06-08 18:06:00,SystemResetWarning,0828.5,5.00,000.00,028.8,027.3,000.0,037.4,030.4,032.6,0000.0,0022.48,0006.39,0004.92
2024-06-08 18:07:00,SystemResetWarning,0828.5,5.00,000.00,028.9,027.7,000.0,037.4,030.6,032.9,0000.0,0023.22,0006.39,0004.96
2024-06-08 18:08:00,SystemResetWarning,0828.4,4.99,000.00,029.0,028.0,000.0,037.4,030.7,032.8,0000.0,0023.13,0006.36,0004.98
2024-06-08 18:09:00,SystemResetWarning,0828.5,5.00,000.00,029.1,028.2,000.0,037.4,030.9,032.6,0000.0,0021.95,0006.34,0005.00
2024-06-08 18:10:00,SystemResetWarning,0828.4,4.99,000.00,029.1,028.5,000.0,037.4,031.0,031.7,0000.0,0021.76,0006.37,0005.02
2024-06-08 18:11:00,SystemResetWarning,0828.5,5.00,000.00,029.2,028.7,000.0,037.4,031.1,031.9,0000.0,0022.53,0006.38,0005.04
2024-06-08 18:12:00,SystemResetWarning,0828.5,5.00,000.00,029.3,028.8,000.0,037.4,031.2,032.4,0000.0,0023.06,0006.40,0005.03
2024-06-08 18:13:00,SystemResetWarning,0828.5,5.00,000.00,029.4,029.0,000.0,037.5,031.3,031.8,0000.0,0022.40,0006.47,0005.03
2024-06-08 18:14:00,SystemResetWarning,0828.5,5.00,000.00,029.5,029.1,000.0,037.5,031.3,032.0,0000.0,0022.27,0006.48,0005.05
2024-06-08 18:15:00,SystemResetWarning,0828.5,5.00,000.00,029.5,029.2,000.0,037.6,031.4,031.7,0000.0,0024.41,0006.54,0005.08
2024-06-08 18:16:00,SystemResetWarning,0828.4,4.98,000.00,029.6,028.6,000.0,037.6,031.1,031.4,0000.0,0025.26,0006.63,0005.10
2024-06-08 18:17:00,SystemResetWarning,0828.4,5.00,000.00,029.2,026.5,000.0,037.7,030.1,032.5,0000.0,0025.46,0006.66,0005.06
2024-06-08 18:18:00,SystemResetWarning,0828.3,5.01,000.00,028.9,025.8,000.0,037.7,029.7,033.2,0000.0,0024.82,0006.60,0005.01
2024-06-08 18:19:00,SystemResetWarning,0828.3,5.02,000.00,028.8,026.1,000.0,037.6,029.8,032.5,0000.0,0024.72,0006.59,0004.99
2024-06-08 18:20:00,SystemResetWarning,0828.3,5.00,000.00,028.8,026.6,000.0,037.5,030.1,032.5,0000.0,0025.67,0006.60,0004.98
2024-06-08 18:21:00,SystemResetWarning,0828.3,4.99,000.00,028.8,027.0,000.0,037.4,030.3,032.5,0000.0,0025.67,0006.55,0004.97
2024-06-08 18:22:00,SystemResetWarning,0828.3,5.01,000.00,028.9,027.4,000.0,037.4,030.5,032.4,0000.7,0024.61,0006.50,0004.93
2024-06-08 18:23:00,SystemResetWarning,0828.2,5.00,000.00,029.0,027.8,000.0,037.4,030.7,032.2,0001.1,0024.09,0006.53,0004.93
2024-06-08 18:24:00,SystemResetWarning,0828.2,5.00,000.00,029.0,028.1,000.0,037.4,030.8,031.8,0001.4,0024.18,0006.58,0004.96
2024-06-08 18:25:00,SystemResetWarning,0828.2,4.99,000.00,029.1,028.3,000.0,037.4,030.9,030.9,0002.0,0024.47,0006.59,0004.95
2024-06-08 18:26:00,SystemResetWarning,0828.2,5.00,000.00,029.2,028.5,000.0,037.4,031.0,031.1,0002.0,0022.28,0006.56,0004.95
2024-06-08 18:27:00,SystemResetWarning,0828.2,4.99,000.00,029.3,028.7,000.0,037.4,031.1,030.9,0001.2,0020.39,0006.48,0004.93
2024-06-08 18:28:00,SystemResetWarning,0828.2,5.00,000.00,029.3,028.9,000.0,037.5,031.2,030.7,0001.4,0019.91,0006.41,0004.94
2024-06-08 18:29:00,SystemResetWarning,0828.2,5.00,000.00,029.4,029.0,000.0,037.5,031.3,030.8,0000.8,0019.14,0006.45,0004.98
2024-06-08 18:30:00,SystemResetWarning,0828.3,5.00,000.00,029.5,029.2,000.0,037.5,031.4,031.2,0001.1,0018.07,0006.47,0004.98
2024-06-08 18:31:00,SystemResetWarning,0828.3,5.00,000.00,029.6,029.1,000.0,037.6,031.4,030.6,0000.4,0018.47,0006.45,0004.92
2024-06-08 18:32:00,SystemResetWarning,0828.2,5.00,000.00,029.5,027.6,000.0,037.7,030.6,030.3,0000.0,0018.68,0006.48,0004.88
2024-06-08 18:33:00,SystemResetWarning,0828.2,5.01,000.00,029.0,026.0,000.0,037.7,029.8,030.8,0000.0,0018.71,0006.55,0004.88
2024-06-08 18:34:00,SystemResetWarning,0828.2,5.01,000.00,028.8,026.0,000.0,037.7,029.8,031.7,0000.0,0018.89,0006.47,0004.86
2024-06-08 18:35:00,SystemResetWarning,0828.2,5.00,000.00,028.8,026.4,000.0,037.5,030.0,031.4,0000.0,0019.76,0006.32,0004.80
2024-06-08 18:36:00,SystemResetWarning,0828.3,4.99,000.00,028.8,026.9,000.0,037.5,030.2,031.4,0000.0,0019.56,0006.22,0004.76
2024-06-08 18:37:00,SystemResetWarning,0828.3,4.99,000.00,028.9,027.3,000.0,037.4,030.5,031.3,0000.0,0019.35,0006.17,0004.71
2024-06-08 18:38:00,SystemResetWarning,0828.3,5.00,000.00,028.9,027.7,000.0,037.4,030.6,030.7,0000.0,0020.66,0006.18,0004.65
2024-06-08 18:39:00,SystemResetWarning,0828.3,5.01,000.00,029.0,028.0,000.0,037.4,030.8,030.1,0000.0,0021.33,0006.08,0004.56
2024-06-08 18:40:00,SystemResetWarning,0828.4,5.00,000.00,029.1,028.3,000.0,037.4,030.9,029.4,0000.0,0021.25,0005.91,0004.42
2024-06-08 18:41:00,SystemResetWarning,0828.3,4.99,000.00,029.2,028.5,000.0,037.4,031.0,029.0,0000.0,0020.60,0005.71,0004.30
2024-06-08 18:42:00,SystemResetWarning,0828.2,5.00,000.00,029.3,028.7,000.0,037.4,031.1,029.4,0000.0,0019.21,0005.57,0004.24
2024-06-08 18:43:00,SystemResetWarning,0828.2,5.00,000.00,029.3,028.8,000.0,037.5,031.2,028.7,0000.0,0018.03,0005.41,0004.17
2024-06-08 18:44:00,SystemResetWarning,0828.3,5.00,000.00,029.4,029.0,000.0,037.5,031.3,027.9,0000.0,0017.38,0005.20,0004.07
2024-06-08 18:45:00,SystemResetWarning,0828.3,5.01,000.00,029.5,029.1,000.0,037.5,031.4,027.6,0000.0,0017.52,0005.08,0003.98
2024-06-08 18:46:00,SystemResetWarning,0828.3,5.00,000.00,029.6,029.2,000.0,037.6,031.5,028.3,0000.0,0016.60,0005.00,0003.89
2024-06-08 18:47:00,SystemResetWarning,0828.2,5.00,000.00,029.7,029.2,000.0,037.6,031.4,028.4,0000.0,0015.32,0004.88,0003.79
2024-06-08 18:48:00,SystemResetWarning,0828.1,4.99,000.00,029.5,027.5,000.0,037.7,030.6,028.1,0000.0,0014.85,0004.83,0003.72
2024-06-08 18:49:00,SystemResetWarning,0828.1,5.01,000.00,029.1,025.9,000.0,037.7,029.8,029.7,0000.0,0013.26,0004.71,0003.65
2024-06-08 18:50:00,SystemResetWarning,0828.1,5.02,000.00,028.9,026.0,000.0,037.7,029.8,029.5,0000.0,0012.10,0004.65,0003.62
2024-06-08 18:51:00,SystemResetWarning,0828.1,5.00,000.00,028.8,026.5,000.0,037.6,030.0,029.9,0000.0,0011.70,0004.67,0003.62
2024-06-08 18:52:00,SystemResetWarning,0828.1,4.99,000.00,028.9,026.9,000.0,037.5,030.3,029.4,0000.0,0011.99,0004.77,0003.62
2024-06-08 18:53:00,SystemResetWarning,0828.1,5.00,000.00,028.9,027.3,000.0,037.4,030.5,028.9,0000.0,0012.68,0004.79,0003.61
2024-06-08 18:54:00,SystemResetWarning,0828.1,5.00,000.00,029.0,027.7,000.0,037.4,030.6,029.3,0000.0,0012.94,0004.83,0003.62
2024-06-08 18:55:00,SystemResetWarning,0828.1,5.01,000.00,029.0,028.0,000.0,037.4,030.8,029.2,0000.0,0012.98,0004.88,0003.62
2024-06-08 18:56:00,SystemResetWarning,0828.1,4.99,000.00,029.1,028.3,000.0,037.4,030.9,028.9,0000.0,0012.35,0004.87,0003.61
2024-06-08 18:57:00,SystemResetWarning,0828.1,5.00,000.00,029.2,028.5,000.0,037.4,031.0,028.9,0000.0,0013.50,0004.88,0003.62
2024-06-08 18:58:00,SystemResetWarning,0828.0,5.00,000.00,029.3,028.7,000.0,037.5,031.1,028.4,0000.0,0013.44,0004.94,0003.63
2024-06-08 18:59:00,SystemResetWarning,0828.1,5.00,000.00,029.4,028.9,000.0,037.5,031.2,028.5,0000.0,0013.63,0004.92,0003.63
